Date,Time,Wetness (Wet Dry or Ice),Wind Speed (m/s),Temperature (C),Humidity (%),Pressure (mb),Radiation (W/m^2)
2019-11-19,00:20:00,DRY,4.63,5.90,31.7,774.33,1.1
2019-11-19,00:25:00,DRY,3.80,6.15,27.5,774.00,0.5
2019-11-19,00:30:00,DRY,3.77,7.03,30.0,774.33,1.4
2019-11-19,00:35:00,DRY,4.35,7.50,24.5,774.00,1.1
2019-11-19,00:40:00,DRY,3.93,7.07,28.0,774.00,1.5
2019-11-19,00:45:00,DRY,3.20,7.15,30.0,774.00,1.1
2019-11-19,00:50:00,DRY,3.53,6.63,34.3,774.00,2.1
2019-11-19,00:55:00,DRY,3.95,6.45,35.5,774.00,1.2
2019-11-19,01:00:00,DRY,3.43,6.43,35.0,774.00,0.9
2019-11-19,01:05:00,DRY,3.60,6.75,33.5,774.00,1.1
2019-11-19,01:10:00,,,,,,
2019-11-19,01:15:00,DRY,3.00,6.90,32.0,774.00,2.1
2019-11-19,01:20:00,DRY,2.17,6.37,35.0,774.00,0.7
2019-11-19,01:25:00,DRY,2.80,5.40,40.5,774.00,0.9
2019-11-19,01:30:00,DRY,2.97,5.37,41.0,774.00,0.9
2019-11-19,01:35:00,DRY,3.25,5.35,41.5,774.00,1.1
2019-11-19,01:40:00,DRY,3.10,5.37,42.7,774.00,0.9
2019-11-19,01:45:00,DRY,3.20,5.40,42.5,774.00,1.2
2019-11-19,01:50:00,DRY,3.23,6.13,37.3,774.00,1.0
2019-11-19,01:55:00,DRY,3.10,5.85,41.0,774.00,1.6
2019-11-19,02:00:00,DRY,2.37,6.80,29.3,774.00,1.8
2019-11-19,02:05:00,DRY,2.20,7.25,28.5,774.00,1.1
2019-11-19,02:10:00,DRY,2.83,7.00,30.0,774.00,0.8
2019-11-19,02:15:00,DRY,1.90,6.80,34.0,774.00,0.6
2019-11-19,02:20:00,DRY,2.40,6.63,34.7,774.00,1.2
2019-11-19,02:25:00,,,,,,
2019-11-19,02:30:00,DRY,3.00,5.70,41.0,774.00,1.4
2019-11-19,02:35:00,DRY,2.70,5.55,42.0,774.00,0.5
2019-11-19,02:40:00,DRY,2.53,6.20,35.7,774.00,2.1
2019-11-19,02:45:00,DRY,2.95,6.50,36.5,774.00,1.0
2019-11-19,02:50:00,DRY,2.80,6.13,40.0,774.00,1.0
2019-11-19,02:55:00,DRY,2.80,5.35,43.5,774.00,0.6
2019-11-19,03:00:00,DRY,2.67,5.57,42.3,774.00,1.3
2019-11-19,03:05:00,DRY,2.50,5.55,42.5,774.00,1.0
2019-11-19,03:10:00,DRY,2.47,5.27,43.0,774.00,2.0
2019-11-19,03:15:00,DRY,2.05,5.30,41.5,774.00,0.6
2019-11-19,03:20:00,DRY,1.93,5.63,40.3,774.00,2.4
2019-11-19,03:25:00,DRY,2.10,5.65,39.5,774.00,1.1
2019-11-19,03:30:00,DRY,2.23,5.53,38.7,773.67,1.7
2019-11-19,03:35:00,DRY,2.10,5.55,39.0,774.00,0.8
2019-11-19,03:40:00,DRY,1.75,5.40,39.0,774.00,1.1
2019-11-19,03:45:00,,,,,,
2019-11-19,03:50:00,DRY,2.65,5.50,39.0,773.50,0.8
2019-11-19,03:55:00,DRY,2.40,5.45,39.5,773.00,1.0
2019-11-19,04:00:00,DRY,2.03,5.50,37.3,773.00,2.0
2019-11-19,04:05:00,DRY,2.10,5.70,36.5,773.00,0.5
2019-11-19,04:10:00,DRY,2.47,5.60,31.0,773.00,1.1
2019-11-19,04:15:00,DRY,2.45,5.50,30.0,773.00,1.5
2019-11-19,04:20:00,DRY,2.53,5.73,30.0,773.00,1.6
2019-11-19,04:25:00,DRY,2.50,5.80,29.5,773.00,1.6
2019-11-19,04:30:00,DRY,2.33,6.03,29.0,773.00,1.4
2019-11-19,04:35:00,DRY,2.65,5.85,29.0,773.00,1.0
2019-11-19,04:40:00,DRY,3.40,5.57,27.3,773.00,1.1
2019-11-19,04:45:00,DRY,2.60,5.35,27.0,773.00,2.0
2019-11-19,04:50:00,DRY,2.47,5.53,26.3,773.00,0.5
2019-11-19,04:55:00,DRY,2.30,5.70,26.0,773.00,0.6
2019-11-19,05:00:00,,,,,,
2019-11-19,05:05:00,DRY,2.00,5.95,27.5,773.00,1.6
2019-11-19,05:10:00,DRY,1.93,6.07,31.0,773.00,1.2
2019-11-19,05:15:00,DRY,2.10,5.80,30.0,773.00,0.8
2019-11-19,05:20:00,DRY,1.73,5.50,30.0,773.00,1.2
2019-11-19,05:25:00,DRY,2.05,5.50,30.5,773.00,1.3
2019-11-19,05:30:00,DRY,1.87,5.90,30.0,773.00,1.6
2019-11-19,05:35:00,DRY,2.00,6.00,30.0,773.00,0.0
2019-11-19,05:40:00,DRY,1.90,5.43,30.3,773.00,0.9
2019-11-19,05:45:00,DRY,1.15,5.15,29.0,773.00,1.6
2019-11-19,05:50:00,DRY,1.50,5.70,29.7,773.00,1.7
2019-11-19,05:55:00,DRY,1.35,6.00,33.5,773.00,1.8
2019-11-19,06:00:00,DRY,1.40,5.80,32.0,773.00,0.9
2019-11-19,06:05:00,DRY,1.15,5.85,29.5,773.00,2.0
2019-11-19,06:10:00,DRY,1.20,5.80,31.0,773.00,1.3
2019-11-19,06:15:00,,,,,,
2019-11-19,06:20:00,DRY,1.00,6.00,37.0,773.00,1.2
2019-11-19,06:25:00,DRY,1.05,6.00,38.0,773.00,0.4
2019-11-19,06:30:00,DRY,1.23,6.00,37.0,773.00,1.4
2019-11-19,06:35:00,DRY,1.05,5.80,37.5,773.00,1.6
2019-11-19,06:40:00,DRY,0.97,5.90,37.0,773.00,1.7
2019-11-19,06:45:00,DRY,1.35,5.70,38.5,773.00,0.5
2019-11-19,06:50:00,DRY,0.70,5.40,36.3,773.00,1.3
2019-11-19,06:55:00,DRY,0.90,5.75,33.0,773.00,1.9
2019-11-19,07:00:00,DRY,0.93,6.07,35.3,773.00,1.8
2019-11-19,07:05:00,DRY,1.35,5.85,37.5,773.00,2.1
2019-11-19,07:10:00,DRY,1.40,5.57,38.7,773.00,0.9
2019-11-19,07:15:00,DRY,1.20,5.60,37.0,773.00,1.2
2019-11-19,07:20:00,DRY,1.05,5.62,35.2,773.00,2.1
2019-11-19,07:25:00,,,,,,
2019-11-19,07:30:00,,,,,,
2019-11-19,07:35:00,DRY,1.20,5.50,37.0,774.00,7.4
2019-11-19,07:40:00,DRY,0.90,5.23,39.0,773.33,10.3
2019-11-19,07:45:00,DRY,0.55,5.05,38.5,773.00,11.8
2019-11-19,07:50:00,DRY,0.27,4.93,39.7,773.00,15.0
2019-11-19,07:55:00,DRY,0.40,5.00,39.0,773.50,17.2
2019-11-19,08:00:00,DRY,0.17,5.13,36.3,774.00,19.9
2019-11-19,08:05:00,DRY,0.70,5.55,35.0,774.00,21.6
2019-11-19,08:10:00,DRY,0.47,6.00,35.0,774.00,24.4
2019-11-19,08:15:00,DRY,0.70,6.00,35.0,774.00,95.2
2019-11-19,08:20:00,DRY,1.03,6.17,34.0,774.00,158.8
2019-11-19,08:25:00,DRY,1.15,6.25,34.0,774.00,174.4
2019-11-19,08:30:00,DRY,2.03,6.07,34.0,774.00,198.3
2019-11-19,08:35:00,DRY,2.37,5.70,36.0,774.00,219.3
2019-11-19,08:40:00,,,,,,
2019-11-19,08:45:00,,,,,,
2019-11-19,08:50:00,DRY,1.17,6.20,32.0,774.00,278.4
2019-11-19,08:55:00,DRY,0.25,6.60,31.0,774.00,297.2
2019-11-19,09:00:00,DRY,1.07,6.77,31.3,774.00,313.6
2019-11-19,09:05:00,DRY,1.15,6.60,32.0,774.00,331.1
2019-11-19,09:10:00,DRY,0.63,6.97,31.7,774.00,348.1
2019-11-19,09:15:00,DRY,0.65,7.25,33.0,774.00,371.5
2019-11-19,09:20:00,DRY,0.83,7.37,32.0,774.00,390.4
2019-11-19,09:25:00,DRY,0.85,7.15,32.5,774.00,410.0
2019-11-19,09:30:00,DRY,0.93,7.20,32.7,774.00,429.3
2019-11-19,09:35:00,DRY,0.65,7.50,32.0,774.00,448.0
2019-11-19,09:40:00,DRY,0.90,7.70,32.3,774.00,464.9
2019-11-19,09:45:00,DRY,1.10,7.10,33.5,774.00,481.0
2019-11-19,09:50:00,DRY,0.83,7.10,33.3,774.00,497.0
2019-11-19,09:55:00,,,,,,
2019-11-19,10:00:00,DRY,1.30,7.00,30.0,774.00,540.5
2019-11-19,10:05:00,DRY,0.80,7.20,29.5,774.00,550.3
2019-11-19,10:10:00,DRY,0.93,7.63,27.0,774.00,550.8
2019-11-19,10:15:00,DRY,0.90,7.25,27.0,774.00,574.7
2019-11-19,10:20:00,DRY,1.57,7.37,30.7,774.00,589.0
2019-11-19,10:25:00,DRY,2.00,7.40,31.5,774.00,585.0
2019-11-19,10:30:00,DRY,2.20,7.30,31.0,774.00,605.9
2019-11-19,10:35:00,DRY,2.20,7.30,31.0,774.00,605.9
2019-11-19,10:40:00,DRY,2.20,7.30,31.0,774.00,605.9
2019-11-19,10:45:00,DRY,2.20,7.30,31.0,774.00,605.9
2019-11-19,10:50:00,DRY,2.20,7.30,31.0,774.00,605.9
2019-11-19,10:55:00,DRY,2.20,7.30,31.0,774.00,605.9
2019-11-19,11:00:00,DRY,2.20,7.30,31.0,774.00,605.9
2019-11-19,11:05:00,DRY,2.20,7.30,31.0,774.00,605.9
2019-11-19,11:10:00,DRY,2.20,7.30,31.0,774.00,605.9
2019-11-19,11:15:00,DRY,2.20,7.30,31.0,774.00,605.9
2019-11-19,11:20:00,DRY,2.20,7.30,31.0,774.00,605.9
2019-11-19,11:25:00,DRY,2.20,7.30,31.0,774.00,605.9
2019-11-19,11:30:00,DRY,2.20,7.30,31.0,774.00,605.9
2019-11-19,11:35:00,DRY,2.20,7.30,31.0,774.00,605.9
2019-11-19,11:40:00,DRY,2.20,7.30,31.0,774.00,605.9
2019-11-19,11:45:00,DRY,2.20,7.30,31.0,774.00,605.9
2019-11-19,11:50:00,DRY,2.20,7.30,31.0,774.00,605.9
2019-11-19,11:55:00,DRY,2.20,7.30,31.0,774.00,605.9
2019-11-19,12:00:00,DRY,2.20,7.30,31.0,774.00,605.9
2019-11-19,12:05:00,DRY,2.20,7.30,31.0,774.00,605.9
2019-11-19,12:10:00,DRY,2.20,7.30,31.0,774.00,605.9
2019-11-19,12:15:00,DRY,2.20,7.30,31.0,774.00,605.9
2019-11-19,12:20:00,DRY,2.20,7.30,31.0,774.00,605.9
2019-11-19,12:25:00,DRY,2.20,7.30,31.0,774.00,605.9
2019-11-19,12:30:00,DRY,2.20,7.30,31.0,774.00,605.9
2019-11-19,12:35:00,DRY,2.20,7.30,31.0,774.00,605.9
2019-11-19,12:40:00,DRY,2.20,7.30,31.0,774.00,605.9
2019-11-19,12:45:00,DRY,2.20,7.30,31.0,774.00,605.9
2019-11-19,12:50:00,DRY,2.20,7.30,31.0,774.00,605.9
2019-11-19,12:55:00,DRY,2.20,7.30,31.0,774.00,605.9
2019-11-19,13:00:00,DRY,2.20,7.30,31.0,774.00,605.9
2019-11-19,13:05:00,DRY,2.20,7.30,31.0,774.00,605.9
2019-11-19,13:10:00,DRY,2.20,7.30,31.0,774.00,605.9
2019-11-19,13:15:00,DRY,2.20,7.30,31.0,774.00,605.9
2019-11-19,13:20:00,DRY,2.20,7.30,31.0,774.00,605.9
2019-11-19,13:25:00,DRY,2.20,7.30,31.0,774.00,605.9
2019-11-19,13:30:00,DRY,2.20,7.30,31.0,774.00,605.9
2019-11-19,13:35:00,DRY,2.20,7.30,31.0,774.00,605.9
2019-11-19,13:40:00,DRY,2.20,7.30,31.0,774.00,605.9
2019-11-19,13:45:00,DRY,2.20,7.30,31.0,774.00,605.9
2019-11-19,13:50:00,DRY,2.20,7.30,31.0,774.00,605.9
2019-11-19,13:55:00,DRY,2.20,7.30,31.0,774.00,605.9
2019-11-19,14:00:00,DRY,2.20,7.30,31.0,774.00,605.9
2019-11-19,14:05:00,DRY,2.20,7.30,31.0,774.00,605.9
2019-11-19,14:10:00,DRY,2.20,7.30,31.0,774.00,605.9
2019-11-19,14:15:00,DRY,2.20,7.30,31.0,774.00,605.9
2019-11-19,14:20:00,DRY,2.20,7.30,31.0,774.00,605.9
2019-11-19,14:25:00,DRY,2.20,7.30,31.0,774.00,605.9
2019-11-19,14:30:00,DRY,2.20,7.30,31.0,774.00,605.9
2019-11-19,14:35:00,DRY,2.20,7.30,31.0,774.00,605.9
2019-11-19,14:40:00,DRY,2.20,7.30,31.0,774.00,605.9
2019-11-19,14:45:00,DRY,2.20,7.30,31.0,774.00,605.9
2019-11-19,14:50:00,DRY,2.20,7.30,31.0,774.00,605.9
2019-11-19,14:55:00,DRY,2.20,7.30,31.0,774.00,605.9
2019-11-19,15:00:00,DRY,2.20,7.30,31.0,774.00,605.9
2019-11-19,15:05:00,DRY,2.20,7.30,31.0,774.00,605.9
2019-11-19,15:10:00,DRY,2.20,7.30,31.0,774.00,605.9
2019-11-19,15:15:00,DRY,2.20,7.30,31.0,774.00,605.9
2019-11-19,15:20:00,DRY,2.20,7.30,31.0,774.00,605.9
2019-11-19,15:25:00,DRY,2.20,7.30,31.0,774.00,605.9
2019-11-19,15:30:00,DRY,2.20,7.30,31.0,774.00,605.9
2019-11-19,15:35:00,DRY,2.20,7.30,31.0,774.00,605.9
2019-11-19,15:40:00,DRY,2.20,7.30,31.0,774.00,605.9
2019-11-19,15:45:00,DRY,2.20,7.30,31.0,774.00,605.9
2019-11-19,15:50:00,DRY,2.20,7.30,31.0,774.00,605.9
2019-11-19,15:55:00,DRY,2.20,7.30,31.0,774.00,605.9
2019-11-19,16:00:00,DRY,2.20,7.30,31.0,774.00,605.9
2019-11-19,16:05:00,DRY,2.20,7.30,31.0,774.00,605.9
2019-11-19,16:10:00,DRY,2.20,7.30,31.0,774.00,605.9
2019-11-19,16:15:00,DRY,2.20,7.30,31.0,774.00,605.9
2019-11-19,16:20:00,DRY,2.20,7.30,31.0,774.00,605.9
2019-11-19,16:25:00,DRY,2.20,7.30,31.0,774.00,605.9
2019-11-19,16:30:00,DRY,2.20,7.30,31.0,774.00,605.9
2019-11-19,16:35:00,DRY,2.20,7.30,31.0,774.00,605.9
2019-11-19,16:40:00,DRY,2.20,7.30,31.0,774.00,605.9
2019-11-19,16:45:00,DRY,2.20,7.30,31.0,774.00,605.9
2019-11-19,16:50:00,DRY,2.20,7.30,31.0,774.00,605.9
2019-11-19,16:55:00,DRY,2.20,7.30,31.0,774.00,605.9
2019-11-19,17:00:00,DRY,2.20,7.30,31.0,774.00,605.9
2019-11-19,17:05:00,DRY,2.20,7.30,31.0,774.00,605.9
2019-11-19,17:10:00,DRY,2.20,7.30,31.0,774.00,605.9
2019-11-19,17:15:00,DRY,2.20,7.30,31.0,774.00,605.9
2019-11-19,17:20:00,DRY,2.20,7.30,31.0,774.00,605.9
2019-11-19,17:25:00,DRY,2.20,7.30,31.0,774.00,605.9
2019-11-19,17:30:00,DRY,2.20,7.30,31.0,774.00,605.9
2019-11-19,17:35:00,DRY,2.20,7.30,31.0,774.00,605.9
2019-11-19,17:40:00,DRY,2.20,7.30,31.0,774.00,605.9
2019-11-19,17:45:00,DRY,2.20,7.30,31.0,774.00,605.9
2019-11-19,17:50:00,DRY,2.20,7.30,31.0,774.00,605.9
2019-11-19,17:55:00,DRY,2.20,7.30,31.0,774.00,605.9
2019-11-19,18:00:00,DRY,2.20,7.30,31.0,774.00,605.9
2019-11-19,18:05:00,DRY,2.20,7.30,31.0,774.00,605.9
2019-11-19,18:10:00,DRY,2.20,7.30,31.0,774.00,605.9
2019-11-19,18:15:00,DRY,2.20,7.30,31.0,774.00,605.9
2019-11-19,18:20:00,DRY,2.20,7.30,31.0,774.00,605.9
2019-11-19,18:25:00,DRY,2.20,7.30,31.0,774.00,605.9
2019-11-19,18:30:00,DRY,2.20,7.30,31.0,774.00,605.9
2019-11-19,18:35:00,DRY,2.20,7.30,31.0,774.00,605.9
2019-11-19,18:40:00,DRY,2.20,7.30,31.0,774.00,605.9
2019-11-19,18:45:00,DRY,2.20,7.30,31.0,774.00,605.9
2019-11-19,18:50:00,DRY,2.20,7.30,31.0,774.00,605.9
2019-11-19,18:55:00,DRY,2.20,7.30,31.0,774.00,605.9
2019-11-19,19:00:00,DRY,2.20,7.30,31.0,774.00,605.9
2019-11-19,19:05:00,DRY,2.20,7.30,31.0,774.00,605.9
2019-11-19,19:10:00,DRY,2.20,7.30,31.0,774.00,605.9
2019-11-19,19:15:00,DRY,2.20,7.30,31.0,774.00,605.9
2019-11-19,19:20:00,DRY,2.20,7.30,31.0,774.00,605.9
2019-11-19,19:25:00,DRY,2.20,7.30,31.0,774.00,605.9
2019-11-19,19:30:00,DRY,2.20,7.30,31.0,774.00,605.9
2019-11-19,19:35:00,DRY,2.20,7.30,31.0,774.00,605.9
2019-11-19,19:40:00,DRY,2.20,7.30,31.0,774.00,605.9
2019-11-19,19:45:00,DRY,2.20,7.30,31.0,774.00,605.9
2019-11-19,19:50:00,DRY,2.20,7.30,31.0,774.00,605.9
2019-11-19,19:55:00,DRY,2.20,7.30,31.0,774.00,605.9
2019-11-19,20:00:00,DRY,2.20,7.30,31.0,774.00,605.9
2019-11-19,20:05:00,DRY,2.20,7.30,31.0,774.00,605.9
2019-11-19,20:10:00,DRY,2.20,7.30,31.0,774.00,605.9
2019-11-19,20:15:00,DRY,2.20,7.30,31.0,774.00,605.9
2019-11-19,20:20:00,DRY,2.20,7.30,31.0,774.00,605.9
2019-11-19,20:25:00,DRY,2.20,7.30,31.0,774.00,605.9
2019-11-19,20:30:00,DRY,2.20,7.30,31.0,774.00,605.9
2019-11-19,20:35:00,DRY,2.20,7.30,31.0,774.00,605.9
2019-11-19,20:40:00,DRY,2.20,7.30,31.0,774.00,605.9
2019-11-19,20:45:00,DRY,2.20,7.30,31.0,774.00,605.9
2019-11-19,20:50:00,DRY,2.20,7.30,31.0,774.00,605.9
2019-11-19,20:55:00,DRY,2.20,7.30,31.0,774.00,605.9
2019-11-19,21:00:00,DRY,2.20,7.30,31.0,774.00,605.9
2019-11-19,21:05:00,DRY,2.20,7.30,31.0,774.00,605.9
2019-11-19,21:10:00,DRY,2.20,7.30,31.0,774.00,605.9
2019-11-19,21:15:00,DRY,2.20,7.30,31.0,774.00,605.9
2019-11-19,21:20:00,DRY,2.20,7.30,31.0,774.00,605.9
2019-11-19,21:25:00,DRY,2.20,7.30,31.0,774.00,605.9
2019-11-19,21:30:00,DRY,2.20,7.30,31.0,774.00,605.9
2019-11-19,21:35:00,DRY,2.20,7.30,31.0,774.00,605.9
2019-11-19,21:40:00,DRY,2.20,7.30,31.0,774.00,605.9
2019-11-19,21:45:00,DRY,2.20,7.30,31.0,774.00,605.9
2019-11-19,21:50:00,DRY,2.20,7.30,31.0,774.00,605.9
2019-11-19,21:55:00,DRY,2.20,7.30,31.0,774.00,605.9
2019-11-19,22:00:00,DRY,2.20,7.30,31.0,774.00,605.9
2019-11-19,22:05:00,DRY,2.20,7.30,31.0,774.00,605.9
2019-11-19,22:10:00,DRY,2.20,7.30,31.0,774.00,605.9
2019-11-19,22:15:00,DRY,2.20,7.30,31.0,774.00,605.9
2019-11-19,22:20:00,DRY,2.20,7.30,31.0,774.00,605.9
2019-11-19,22:25:00,DRY,2.20,7.30,31.0,774.00,605.9
2019-11-19,22:30:00,DRY,2.20,7.30,31.0,774.00,605.9
2019-11-19,22:35:00,DRY,2.20,7.30,31.0,774.00,605.9
2019-11-19,22:40:00,DRY,2.20,7.30,31.0,774.00,605.9
2019-11-19,22:45:00,DRY,2.20,7.30,31.0,774.00,605.9
2019-11-19,22:50:00,DRY,2.20,7.30,31.0,774.00,605.9
2019-11-19,22:55:00,DRY,2.20,7.30,31.0,774.00,605.9
2019-11-19,23:00:00,DRY,2.20,7.30,31.0,774.00,605.9
2019-11-19,23:05:00,DRY,2.20,7.30,31.0,774.00,605.9
2019-11-19,23:10:00,DRY,2.20,7.30,31.0,774.00,605.9
2019-11-19,23:15:00,DRY,2.20,7.30,31.0,774.00,605.9
2019-11-19,23:20:00,DRY,2.20,7.30,31.0,774.00,605.9
2019-11-19,23:25:00,DRY,2.20,7.30,31.0,774.00,605.9
2019-11-19,23:30:00,DRY,2.20,7.30,31.0,774.00,605.9
2019-11-19,23:35:00,DRY,2.20,7.30,31.0,774.00,605.9
2019-11-19,23:40:00,DRY,2.20,7.30,31.0,774.00,605.9
2019-11-19,23:45:00,DRY,2.20,7.30,31.0,774.00,605.9
2019-11-19,23:50:00,DRY,2.20,7.30,31.0,774.00,605.9
2019-11-19,23:55:00,DRY,2.20,7.30,31.0,774.00,605.9
2019-11-20,00:00:00,DRY,2.20,7.30,31.0,774.00,605.9
2019-11-20,00:05:00,DRY,2.20,7.30,31.0,774.00,605.9
2019-11-20,00:10:00,DRY,2.20,7.30,31.0,774.00,605.9
2019-11-20,00:15:00,DRY,2.20,7.30,31.0,774.00,605.9
2019-11-20,00:20:00,DRY,2.20,7.30,31.0,774.00,605.9
2019-11-20,00:25:00,DRY,2.20,7.30,31.0,774.00,605.9
2019-11-20,00:30:00,DRY,2.20,7.30,31.0,774.00,605.9
2019-11-20,00:35:00,DRY,2.20,7.30,31.0,774.00,605.9
2019-11-20,00:40:00,DRY,2.20,7.30,31.0,774.00,605.9
2019-11-20,00:45:00,DRY,2.20,7.30,31.0,774.00,605.9
2019-11-20,00:50:00,DRY,2.20,7.30,31.0,774.00,605.9
2019-11-20,00:55:00,DRY,2.20,7.30,31.0,774.00,605.9
2019-11-20,01:00:00,DRY,2.20,7.30,31.0,774.00,605.9
2019-11-20,01:05:00,DRY,2.20,7.30,31.0,774.00,605.9
2019-11-20,01:10:00,DRY,2.20,7.30,31.0,774.00,605.9
2019-11-20,01:15:00,DRY,2.20,7.30,31.0,774.00,605.9
2019-11-20,01:20:00,DRY,2.20,7.30,31.0,774.00,605.9
2019-11-20,01:25:00,DRY,2.20,7.30,31.0,774.00,605.9
2019-11-20,01:30:00,DRY,2.20,7.30,31.0,774.00,605.9
2019-11-20,01:35:00,DRY,2.20,7.30,31.0,774.00,605.9
2019-11-20,01:40:00,DRY,2.20,7.30,31.0,774.00,605.9
2019-11-20,01:45:00,DRY,2.20,7.30,31.0,774.00,605.9
2019-11-20,01:50:00,DRY,2.20,7.30,31.0,774.00,605.9
2019-11-20,01:55:00,DRY,2.20,7.30,31.0,774.00,605.9
2019-11-20,02:00:00,DRY,2.20,7.30,31.0,774.00,605.9
2019-11-20,02:05:00,DRY,2.20,7.30,31.0,774.00,605.9
2019-11-20,02:10:00,DRY,2.20,7.30,31.0,774.00,605.9
2019-11-20,02:15:00,DRY,2.20,7.30,31.0,774.00,605.9
2019-11-20,02:20:00,DRY,2.20,7.30,31.0,774.00,605.9
2019-11-20,02:25:00,DRY,2.20,7.30,31.0,774.00,605.9
2019-11-20,02:30:00,DRY,2.20,7.30,31.0,774.00,605.9
2019-11-20,02:35:00,DRY,2.20,7.30,31.0,774.00,605.9
2019-11-20,02:40:00,DRY,2.20,7.30,31.0,774.00,605.9
2019-11-20,02:45:00,DRY,2.20,7.30,31.0,774.00,605.9
2019-11-20,02:50:00,DRY,2.20,7.30,31.0,774.00,605.9
2019-11-20,02:55:00,DRY,2.20,7.30,31.0,774.00,605.9
2019-11-20,03:00:00,DRY,2.20,7.30,31.0,774.00,605.9
2019-11-20,03:05:00,DRY,2.20,7.30,31.0,774.00,605.9
2019-11-20,03:10:00,DRY,2.20,7.30,31.0,774.00,605.9
2019-11-20,03:15:00,DRY,2.20,7.30,31.0,774.00,605.9
2019-11-20,03:20:00,DRY,2.20,7.30,31.0,774.00,605.9
2019-11-20,03:25:00,DRY,2.20,7.30,31.0,774.00,605.9
2019-11-20,03:30:00,DRY,2.20,7.30,31.0,774.00,605.9
2019-11-20,03:35:00,DRY,2.20,7.30,31.0,774.00,605.9
2019-11-20,03:40:00,DRY,2.20,7.30,31.0,774.00,605.9
2019-11-20,03:45:00,DRY,2.20,7.30,31.0,774.00,605.9
2019-11-20,03:50:00,DRY,2.20,7.30,31.0,774.00,605.9
2019-11-20,03:55:00,DRY,2.20,7.30,31.0,774.00,605.9
2019-11-20,04:00:00,DRY,2.20,7.30,31.0,774.00,605.9
2019-11-20,04:05:00,DRY,2.20,7.30,31.0,774.00,605.9
2019-11-20,04:10:00,DRY,2.20,7.30,31.0,774.00,605.9
2019-11-20,04:15:00,DRY,2.20,7.30,31.0,774.00,605.9
2019-11-20,04:20:00,DRY,2.20,7.30,31.0,774.00,605.9
2019-11-20,04:25:00,DRY,2.20,7.30,31.0,774.00,605.9
2019-11-20,04:30:00,DRY,2.20,7.30,31.0,774.00,605.9
2019-11-20,04:35:00,DRY,2.20,7.30,31.0,774.00,605.9
2019-11-20,04:40:00,DRY,2.20,7.30,31.0,774.00,605.9
2019-11-20,04:45:00,DRY,2.20,7.30,31.0,774.00,605.9
2019-11-20,04:50:00,DRY,2.20,7.30,31.0,774.00,605.9
2019-11-20,04:55:00,DRY,2.20,7.30,31.0,774.00,605.9
2019-11-20,05:00:00,DRY,2.20,7.30,31.0,774.00,605.9
2019-11-20,05:05:00,DRY,2.20,7.30,31.0,774.00,605.9
2019-11-20,05:10:00,DRY,2.20,7.30,31.0,774.00,605.9
2019-11-20,05:15:00,DRY,2.20,7.30,31.0,774.00,605.9
2019-11-20,05:20:00,DRY,2.20,7.30,31.0,774.00,605.9
2019-11-20,05:25:00,DRY,2.20,7.30,31.0,774.00,605.9
2019-11-20,05:30:00,DRY,2.20,7.30,31.0,774.00,605.9
2019-11-20,05:35:00,DRY,2.20,7.30,31.0,774.00,605.9
2019-11-20,05:40:00,DRY,2.20,7.30,31.0,774.00,605.9
2019-11-20,05:45:00,DRY,2.20,7.30,31.0,774.00,605.9
2019-11-20,05:50:00,DRY,2.20,7.30,31.0,774.00,605.9
2019-11-20,05:55:00,DRY,2.20,7.30,31.0,774.00,605.9
2019-11-20,06:00:00,DRY,2.20,7.30,31.0,774.00,605.9
2019-11-20,06:05:00,DRY,2.20,7.30,31.0,774.00,605.9
2019-11-20,06:10:00,DRY,2.20,7.30,31.0,774.00,605.9
2019-11-20,06:15:00,DRY,2.20,7.30,31.0,774.00,605.9
2019-11-20,06:20:00,DRY,2.20,7.30,31.0,774.00,605.9
2019-11-20,06:25:00,DRY,2.20,7.30,31.0,774.00,605.9
2019-11-20,06:30:00,DRY,2.20,7.30,31.0,774.00,605.9
2019-11-20,06:35:00,DRY,2.20,7.30,31.0,774.00,605.9
2019-11-20,06:40:00,DRY,2.20,7.30,31.0,774.00,605.9
2019-11-20,06:45:00,DRY,2.20,7.30,31.0,774.00,605.9
2019-11-20,06:50:00,DRY,2.20,7.30,31.0,774.00,605.9
2019-11-20,06:55:00,DRY,2.20,7.30,31.0,774.00,605.9
2019-11-20,07:00:00,DRY,2.20,7.30,31.0,774.00,605.9
2019-11-20,07:05:00,DRY,2.20,7.30,31.0,774.00,605.9
2019-11-20,07:10:00,DRY,2.20,7.30,31.0,774.00,605.9
2019-11-20,07:15:00,DRY,2.20,7.30,31.0,774.00,605.9
2019-11-20,07:20:00,DRY,2.20,7.30,31.0,774.00,605.9
2019-11-20,07:25:00,DRY,2.20,7.30,31.0,774.00,605.9
2019-11-20,07:30:00,DRY,2.20,7.30,31.0,774.00,605.9
2019-11-20,07:35:00,DRY,2.20,7.30,31.0,774.00,605.9
2019-11-20,07:40:00,DRY,2.20,7.30,31.0,774.00,605.9
2019-11-20,07:45:00,DRY,2.20,7.30,31.0,774.00,605.9
2019-11-20,07:50:00,DRY,2.20,7.30,31.0,774.00,605.9
2019-11-20,07:55:00,DRY,2.20,7.30,31.0,774.00,605.9
2019-11-20,08:00:00,DRY,2.20,7.30,31.0,774.00,605.9
2019-11-20,08:05:00,DRY,2.20,7.30,31.0,774.00,605.9
2019-11-20,08:10:00,DRY,2.20,7.30,31.0,774.00,605.9
2019-11-20,08:15:00,DRY,2.20,7.30,31.0,774.00,605.9
2019-11-20,08:20:00,DRY,2.20,7.30,31.0,774.00,605.9
2019-11-20,08:25:00,DRY,2.20,7.30,31.0,774.00,605.9
2019-11-20,08:30:00,DRY,2.20,7.30,31.0,774.00,605.9
2019-11-20,08:35:00,DRY,2.20,7.30,31.0,774.00,605.9
2019-11-20,08:40:00,DRY,2.20,7.30,31.0,774.00,605.9
2019-11-20,08:45:00,DRY,2.20,7.30,31.0,774.00,605.9
2019-11-20,08:50:00,DRY,2.20,7.30,31.0,774.00,605.9
2019-11-20,08:55:00,DRY,2.20,7.30,31.0,774.00,605.9
2019-11-20,09:00:00,DRY,2.20,7.30,31.0,774.00,605.9
2019-11-20,09:05:00,DRY,2.20,7.30,31.0,774.00,605.9
2019-11-20,09:10:00,DRY,2.20,7.30,31.0,774.00,605.9
2019-11-20,09:15:00,DRY,2.20,7.30,31.0,774.00,605.9
2019-11-20,09:20:00,DRY,2.20,7.30,31.0,774.00,605.9
2019-11-20,09:25:00,DRY,2.20,7.30,31.0,774.00,605.9
2019-11-20,09:30:00,DRY,2.20,7.30,31.0,774.00,605.9
2019-11-20,09:35:00,DRY,2.20,7.30,31.0,774.00,605.9
2019-11-20,09:40:00,DRY,2.20,7.30,31.0,774.00,605.9
2019-11-20,09:45:00,DRY,2.20,7.30,31.0,774.00,605.9
2019-11-20,09:50:00,DRY,2.20,7.30,31.0,774.00,605.9
2019-11-20,09:55:00,DRY,2.20,7.30,31.0,774.00,605.9
2019-11-20,10:00:00,DRY,2.20,7.30,31.0,774.00,605.9
2019-11-20,10:05:00,DRY,2.20,7.30,31.0,774.00,605.9
2019-11-20,10:10:00,DRY,2.20,7.30,31.0,774.00,605.9
2019-11-20,10:15:00,DRY,2.20,7.30,31.0,774.00,605.9
2019-11-20,10:20:00,DRY,2.20,7.30,31.0,774.00,605.9
2019-11-20,10:25:00,DRY,2.20,7.30,31.0,774.00,605.9
2019-11-20,10:30:00,DRY,2.20,7.30,31.0,774.00,605.9
2019-11-20,10:35:00,DRY,2.20,7.30,31.0,774.00,605.9
2019-11-20,10:40:00,DRY,2.20,7.30,31.0,774.00,605.9
2019-11-20,10:45:00,DRY,2.20,7.30,31.0,774.00,605.9
2019-11-20,10:50:00,DRY,2.20,7.30,31.0,774.00,605.9
2019-11-20,10:55:00,DRY,2.20,7.30,31.0,774.00,605.9
2019-11-20,11:00:00,DRY,2.20,7.30,31.0,774.00,605.9
2019-11-20,11:05:00,WET,3.50,7.15,99.0,773.00,395.4
2019-11-20,11:10:00,WET,2.33,7.17,99.0,773.00,416.2
2019-11-20,11:15:00,WET,4.00,7.35,99.0,773.00,383.2
2019-11-20,11:20:00,WET,1.77,7.40,99.0,773.00,376.2
2019-11-20,11:25:00,WET,3.25,7.35,99.0,773.00,355.4
2019-11-20,11:30:00,WET,2.27,7.57,99.0,773.00,333.8
2019-11-20,11:35:00,DRY,2.75,7.45,99.0,773.00,371.7
2019-11-20,11:40:00,DRY,3.47,7.43,99.0,773.00,370.2
2019-11-20,11:45:00,WET,2.60,7.60,99.0,773.00,428.1
2019-11-20,11:50:00,WET,1.90,7.47,99.0,773.00,444.8
2019-11-20,11:55:00,WET,2.40,7.90,99.0,772.50,598.1
2019-11-20,12:00:00,WET,2.60,7.83,99.0,772.33,480.7
2019-11-20,12:05:00,WET,2.35,7.75,99.0,772.00,381.7
2019-11-20,12:10:00,WET,2.67,8.00,99.0,772.00,462.3
2019-11-20,12:15:00,WET,2.00,7.70,99.0,772.00,252.7
2019-11-20,12:20:00,WET,1.93,7.70,99.0,772.00,341.2
2019-11-20,12:25:00,WET,2.05,7.65,99.0,772.00,371.6
2019-11-20,12:30:00,WET,1.50,7.80,99.0,772.00,471.0
2019-11-20,12:35:00,DRY,2.85,7.90,99.0,772.00,532.5
2019-11-20,12:40:00,DRY,2.43,7.90,99.0,772.00,352.4
2019-11-20,12:45:00,WET,2.15,7.75,99.0,772.00,514.6
2019-11-20,12:50:00,DRY,3.53,7.77,99.0,772.00,435.1
2019-11-20,12:55:00,DRY,2.30,7.70,99.0,772.00,572.8
2019-11-20,13:00:00,WET,2.77,7.97,99.0,772.00,448.8
2019-11-20,13:05:00,DRY,3.30,8.05,99.0,772.00,532.0
2019-11-20,13:10:00,DRY,2.57,7.60,99.0,772.00,365.4
2019-11-20,13:15:00,WET,2.40,7.55,99.0,772.00,378.0
2019-11-20,13:20:00,WET,5.07,7.27,99.0,772.00,449.7
2019-11-20,13:25:00,WET,3.20,7.55,99.0,772.00,440.9
2019-11-20,13:30:00,DRY,6.10,7.70,99.0,772.00,472.0
2019-11-20,13:35:00,DRY,0.70,7.00,99.0,772.00,349.8
2019-11-20,13:40:00,DRY,1.93,7.13,99.0,772.00,358.8
2019-11-20,13:45:00,DRY,3.15,6.90,99.0,772.00,299.4
2019-11-20,13:50:00,DRY,2.37,6.83,99.0,772.00,396.6
2019-11-20,13:55:00,WET,2.55,6.75,99.0,771.00,331.8
2019-11-20,14:00:00,DRY,3.30,6.97,99.0,771.00,373.6
2019-11-20,14:05:00,DRY,3.20,7.15,99.0,771.00,282.9
2019-11-20,14:10:00,DRY,2.10,6.90,99.0,771.00,356.1
2019-11-20,14:15:00,WET,2.00,7.25,99.0,771.00,307.6
2019-11-20,14:20:00,WET,2.17,7.37,99.0,771.00,277.0
2019-11-20,14:25:00,WET,0.75,7.20,99.0,771.00,395.9
2019-11-20,14:30:00,WET,1.73,7.33,99.0,771.00,319.4
2019-11-20,14:35:00,WET,1.75,7.10,99.0,771.00,334.2
2019-11-20,14:40:00,WET,1.47,7.00,99.0,771.00,272.8
2019-11-20,14:45:00,WET,2.35,7.35,99.0,771.00,378.6
2019-11-20,14:50:00,DRY,2.07,7.03,99.0,771.00,354.6
2019-11-20,14:55:00,WET,2.35,7.35,99.0,771.00,282.6
2019-11-20,15:00:00,WET,2.17,7.47,99.0,771.00,470.9
2019-11-20,15:05:00,WET,2.65,7.40,99.0,771.00,303.5
2019-11-20,15:10:00,DRY,2.57,7.50,99.0,771.00,424.7